TimeEDT,TemperatureF,Dew PointF,Humidity,Sea Level PressureIn,VisibilityMPH,Wind Direction,Wind SpeedMPH,Gust SpeedMPH,PrecipitationIn,Events,Conditions,WindDirDegrees,DateUTC
12:53 AM,81.0,78.1,91,29.97,10.0,Calm,Calm,-,N/A,,Scattered Clouds,0,2013-09-24 04:53:00
1:53 AM,81.0,78.1,91,29.96,10.0,SW,3.5,-,N/A,,Scattered Clouds,220,2013-09-24 05:53:00
2:26 AM,78.8,73.4,83,29.96,10.0,Calm,Calm,-,N/A,,Mostly Cloudy,0,2013-09-24 06:26:00
2:36 AM,77.0,73.4,89,29.96,10.0,WNW,3.5,-,N/A,,Scattered Clouds,290,2013-09-24 06:36:00
2:53 AM,77.0,73.0,88,29.97,10.0,West,4.6,-,0.00,Rain,Light Rain,270,2013-09-24 06:53:00
3:53 AM,77.0,73.9,90,29.96,10.0,Calm,Calm,-,0.00,,Scattered Clouds,0,2013-09-24 07:53:00
4:53 AM,77.0,73.9,90,29.95,10.0,Calm,Calm,-,N/A,,Mostly Cloudy,0,2013-09-24 08:53:00
5:53 AM,77.0,73.9,90,29.94,10.0,Calm,Calm,-,N/A,,Scattered Clouds,0,2013-09-24 09:53:00
6:53 AM,77.0,73.9,90,29.95,10.0,Calm,Calm,-,N/A,,Scattered Clouds,0,2013-09-24 10:53:00
7:53 AM,79.0,75.9,90,29.96,10.0,Calm,Calm,-,N/A,,Scattered Clouds,0,2013-09-24 11:53:00
8:53 AM,82.9,78.1,85,29.97,10.0,South,5.8,-,N/A,,Clear,190,2013-09-24 12:53:00
9:53 AM,84.9,77.0,77,29.99,10.0,SSW,8.1,-,N/A,,Mostly Cloudy,210,2013-09-24 13:53:00
10:53 AM,87.1,75.9,69,29.98,10.0,SW,9.2,-,N/A,,Mostly Cloudy,230,2013-09-24 14:53:00
11:53 AM,89.1,73.9,61,29.97,10.0,SSW,6.9,-,N/A,,Scattered Clouds,210,2013-09-24 15:53:00
12:53 PM,91.9,73.9,55,29.94,10.0,SSW,10.4,17.3,N/A,,Scattered Clouds,200,2013-09-24 16:53:00
1:53 PM,91.9,72.0,52,29.92,10.0,SSW,11.5,-,N/A,,Scattered Clouds,210,2013-09-24 17:53:00
2:53 PM,88.0,79.0,75,29.91,10.0,SSE,10.4,17.3,N/A,,Mostly Cloudy,150,2013-09-24 18:53:00
3:53 PM,90.0,70.0,52,29.90,10.0,SW,11.5,-,N/A,,Mostly Cloudy,220,2013-09-24 19:53:00
4:53 PM,89.1,73.9,61,29.89,10.0,WSW,13.8,21.9,N/A,,Overcast,240,2013-09-24 20:53:00
5:53 PM,86.0,70.0,59,29.90,10.0,SW,13.8,-,N/A,,Mostly Cloudy,230,2013-09-24 21:53:00
6:49 PM,80.6,73.4,79,29.91,10.0,West,11.5,23.0,0.00,Rain,Light Rain,280,2013-09-24 22:49:00
6:53 PM,80.1,72.0,76,29.92,10.0,West,15.0,-,0.00,Rain,Light Rain,280,2013-09-24 22:53:00
7:53 PM,80.1,73.0,79,29.90,10.0,South,6.9,-,0.00,,Mostly Cloudy,190,2013-09-24 23:53:00
8:53 PM,80.1,70.0,71,29.93,10.0,West,6.9,-,N/A,,Mostly Cloudy,260,2013-09-25 00:53:00
9:53 PM,80.1,69.1,69,29.94,10.0,Calm,Calm,-,N/A,,Mostly Cloudy,0,2013-09-25 01:53:00
10:53 PM,79.0,70.0,74,29.93,10.0,SW,3.5,-,N/A,,Clear,230,2013-09-25 02:53:00
11:53 PM,77.0,69.1,76,29.92,10.0,West,4.6,-,N/A,,Clear,260,2013-09-25 03:53:00